TimeCDT,TemperatureF,Dew PointF,Humidity,Sea Level PressureIn,VisibilityMPH,Wind Direction,Wind SpeedMPH,Gust SpeedMPH,PrecipitationIn,Events,Conditions,WindDirDegrees,DateUTC
12:53 AM,55.9,39.9,55,30.21,10.0,South,13.8,-,N/A,,Clear,180,2013-03-28 05:53:00
1:53 AM,53.1,41.0,64,30.23,10.0,South,10.4,-,N/A,,Clear,180,2013-03-28 06:53:00
2:53 AM,51.1,42.1,71,30.23,10.0,South,6.9,-,N/A,,Partly Cloudy,170,2013-03-28 07:53:00
3:53 AM,51.1,42.1,71,30.22,10.0,South,9.2,-,N/A,,Partly Cloudy,170,2013-03-28 08:53:00
4:53 AM,50.0,43.0,77,30.22,10.0,SSE,6.9,-,N/A,,Scattered Clouds,160,2013-03-28 09:53:00
5:53 AM,52.0,43.0,71,30.22,10.0,SSE,8.1,-,N/A,,Overcast,160,2013-03-28 10:53:00
6:20 AM,51.8,42.8,71,30.23,10.0,SSE,10.4,-,N/A,,Overcast,150,2013-03-28 11:20:00
6:42 AM,51.8,44.6,76,30.24,10.0,SE,8.1,-,N/A,,Overcast,140,2013-03-28 11:42:00
6:53 AM,52.0,44.1,74,30.23,10.0,SE,10.4,-,N/A,,Overcast,140,2013-03-28 11:53:00
7:53 AM,53.1,44.1,71,30.26,10.0,SSE,9.2,-,N/A,,Overcast,160,2013-03-28 12:53:00
8:53 AM,54.0,45.0,72,30.27,10.0,SSE,9.2,-,N/A,,Overcast,160,2013-03-28 13:53:00
9:53 AM,57.0,46.9,69,30.28,10.0,SSE,10.4,-,N/A,,Overcast,160,2013-03-28 14:53:00
10:53 AM,61.0,48.9,64,30.28,10.0,South,9.2,-,N/A,,Overcast,170,2013-03-28 15:53:00
11:53 AM,64.9,51.1,61,30.27,10.0,South,11.5,-,N/A,,Overcast,170,2013-03-28 16:53:00
12:53 PM,66.9,52.0,59,30.25,10.0,South,11.5,-,N/A,,Overcast,180,2013-03-28 17:53:00
1:53 PM,69.1,52.0,54,30.22,10.0,South,8.1,-,N/A,,Overcast,170,2013-03-28 18:53:00
2:53 PM,71.1,53.1,53,30.19,10.0,SSW,10.4,-,N/A,,Overcast,210,2013-03-28 19:53:00
3:53 PM,70.0,53.1,55,30.17,10.0,South,10.4,-,N/A,,Overcast,180,2013-03-28 20:53:00
4:53 PM,70.0,53.1,55,30.16,10.0,SSE,10.4,-,N/A,,Overcast,160,2013-03-28 21:53:00
5:53 PM,69.1,53.1,57,30.16,10.0,SSE,11.5,-,N/A,,Overcast,160,2013-03-28 22:53:00
6:53 PM,68.0,52.0,56,30.15,10.0,SSE,12.7,-,N/A,,Overcast,160,2013-03-28 23:53:00
7:53 PM,66.0,53.1,63,30.16,10.0,SSE,8.1,-,N/A,,Overcast,150,2013-03-29 00:53:00
8:53 PM,64.9,53.1,65,30.16,10.0,SSE,6.9,-,N/A,,Mostly Cloudy,150,2013-03-29 01:53:00
9:53 PM,63.0,53.1,70,30.17,10.0,SE,8.1,-,N/A,,Clear,140,2013-03-29 02:53:00
10:53 PM,63.0,53.1,70,30.18,10.0,SSE,8.1,-,N/A,,Overcast,160,2013-03-29 03:53:00
11:53 PM,63.0,53.1,70,30.19,10.0,SSE,9.2,-,N/A,,Overcast,160,2013-03-29 04:53:00